Regional Weather Roundup
Issued by NWS

Home | Current Version | Previous Version | Graphics & Text | Print | Product List | Glossary On
Versions: 1 2 3 4 5 6 7 8 9 10 11 12 13 14 15 16 17 18 19 20 21 22 23 24 25 26 27
000
ASUS45 KCYS 241510
RWRWY

WYOMING REGIONAL WEATHER ROUNDUP
NATIONAL WEATHER SERVICE CHEYENNE WY
900 AM MDT WED MAY 24 2017

NOTE:  "FAIR" INDICATES FEW OR NO CLOUDS BELOW 12,000 FEET
WITH NO SIGNIFICANT WEATHER AND/OR OBSTRUCTIONS TO VISIBILITY.

WYZ001-241600-
YELLOWSTONE NATIONAL PARK

CITY           SKY/WX    TMP DP  RH WIND       PRES   REMARKS
LK YELLOWSTONE   N/A     50  34  54 VRB5      29.83F
W YELLOWSTONE  NOT AVBL

$$
WYZ002>013-054>058-071-098>099-241600-
NORTHERN WYOMING

CITY           SKY/WX    TMP DP  RH WIND       PRES   REMARKS
JACKSON        PTSUNNY   52  37  58 SW6       29.83F
CODY           FAIR      69  37  30 W15G23    29.63F
GREYBULL       FAIR      60  36  40 E6        29.61F
WORLAND        FAIR      58  43  57 SW5       29.64F
SHERIDAN       FAIR      60  48  64 N5        29.55F
BUFFALO        FAIR      66  46  48 SE7       29.61F
GILLETTE       FAIR      58  43  57 S14G20    29.61F
HULETT         FAIR      61  34  36 S17G23    29.63F
NEWCASTLE      FAIR      55  32  41 SE15G21   29.70F

$$
WYZ014>020-022>026-101>103-241600-
CENTRAL WYOMING

CITY           SKY/WX    TMP DP  RH WIND       PRES   REMARKS
BIG PINEY      FAIR      51  36  56 E6        29.91F
PINEDALE       FAIR      52  34  50 CALM      29.92F
DUBOIS         FAIR      59  32  36 W16G26    29.80F
LANDER         FAIR      60  40  47 NW3       29.75S
RIVERTON       FAIR      59  39  47 SW12      29.74F
CASPER         FAIR      61  41  47 SW22G28   29.73F
DOUGLAS        FAIR      54  40  59 CALM      29.71F

$$
WYZ021-027>030-104>119-241600-
SOUTHERN WYOMING

CITY           SKY/WX    TMP DP  RH WIND       PRES   REMARKS
EVANSTON       FAIR      60  36  40 SW18      29.97F
KEMMERER         N/A     59  34  38 SW14      29.94F
FORT BRIDGER   FAIR      66  32  28 W25G32    29.97F
ROCK SPRINGS   FAIR      61  32  33 W18       29.91F
DIXON            N/A     57  35  43 SW12G17   29.98F
RAWLINS        FAIR      60  33  36 W26G35    29.87F
LARAMIE        FAIR      60  36  40 W17G24    29.88F
CHEYENNE       FAIR      65  36  34 W17       29.80F
TORRINGTON     FAIR      53  39  59 E7        29.71F
PINE BLUFFS    FAIR      54  37  54 S15G22    29.80F

$$




USA.gov is the U.S. government's official web portal to all federal, state and local government web resources and services.